Location: Fort Hays State University
(38.8712°N, 99.3432°W)
Time: 01:34:51
(UTC-06:00)

Cosmos 2279 Rocket - Visible Passes

Search period start: 21 February 2018 00:00
Search period end: 03 March 2018 00:00
Orbit: 964 x 980 km, 82.9° (Epoch: 20 February)

Date Brightness Start Highest point End Pass type
(mag) Time Alt. Az. Time Alt. Az. Time Alt. Az.
21 Feb 5.6 19:47:40 10° NNE 19:49:30 15° NE 19:49:30 15° NE visible
21 Feb 5.5 21:31:22 10° NNW 21:34:08 28° NNW 21:34:08 28° NNW visible
22 Feb 5.1 20:10:54 10° NNE 20:14:21 26° NE 20:14:21 26° NE visible
22 Feb 5.8 21:56:01 10° NNW 21:59:00 26° NW 21:59:00 26° NW visible
23 Feb 4.4 20:34:43 10° N 20:39:18 45° NNE 20:39:18 45° NNE visible
23 Feb 6.3 22:21:13 10° NW 22:23:57 18° WNW 22:23:57 18° WNW visible
24 Feb 5.5 19:16:01 10° NE 19:19:06 14° ENE 19:19:44 14° ENE visible
24 Feb 4.1 20:58:54 10° N 21:04:23 70° NNW 21:04:23 70° NNW visible
24 Feb 6.8 22:48:47 10° WNW 22:49:02 10° WNW 22:49:02 10° WNW visible
25 Feb 4.9 19:38:47 10° NNE 19:43:50 25° ENE 19:44:58 24° E visible
25 Feb 4.8 21:23:25 10° NNW 21:29:20 46° W 21:29:38 46° W visible
26 Feb 4.2 20:02:25 10° N 20:08:23 45° ENE 20:10:26 34° ESE visible
26 Feb 5.8 21:48:22 10° NNW 21:53:20 25° W 21:55:07 22° WSW visible
27 Feb 3.8 20:26:29 10° N 20:32:46 80° E 20:36:15 28° SSE visible
27 Feb 6.6 22:14:19 10° NW 22:17:11 14° W 22:20:03 10° WSW visible
28 Feb 5.2 19:06:46 10° NNE 19:11:17 20° ENE 19:15:46 10° ESE visible
28 Feb 4.5 20:50:53 10° NNW 20:56:59 58° W 21:02:50 11° SSW visible
01 Mar 4.5 19:30:12 10° N 19:35:54 36° ENE 19:41:35 10° SE visible
01 Mar 5.6 21:15:38 10° NNW 21:21:03 32° W 21:26:28 10° SSW visible
02 Mar 3.9 19:54:07 10° N 20:00:21 65° E 20:06:33 10° SSE visible
02 Mar 6.4 21:41:04 10° NW 21:44:58 17° W 21:48:52 10° WSW visible
